Regional Weather Roundup
Issued by NWS

Home | Current Version | Previous Version | Graphics & Text | Print | Product List | Glossary On
Versions: 1 2 3 4 5 6 7 8 9 10 11 12 13 14 15 16 17 18 19 20 21 22 23 24 25 26 27
000
ASUS45 KSLC 280010
RWRUT

UTAH REGIONAL WEATHER ROUNDUP
NATIONAL WEATHER SERVICE SALT LAKE CITY UT
600 PM MDT WED JUL 27 2016

UTZ001>011-023>025-280100-

NORTHERN UTAH

CITY           SKY/WX    TMP DP  RH WIND       PRES   REMARKS
BRIGHAM CITY     N/A     97  19   6 S12       30.06S HX  90
HILL AFB       SUNNY     94  28   9 VRB7      30.11F
LOGAN          SUNNY     96  32  10 SE7       30.06F HX  90
OGDEN          SUNNY     96  31  10 E3        30.07F HX  90
PROVO AIRPORT  MOSUNNY   99  36  11 NW9       30.07F HX  93
SALT LAKE CITY MOSUNNY  100  27   7 CALM      30.05F HX  93
VERNAL         SUNNY     97  27   8 E6        30.08F HX  91
WENDOVER       SUNNY     99  34  10 SE8       30.03F HX  93
HEBER CITY     SUNNY     95  25   8 N9        30.17S

$$

UTZ012>022-026-027-280100-

SOUTHERN/CENTRAL UTAH

CITY           SKY/WX    TMP DP  RH WIND       PRES   REMARKS
BLANDING       SUNNY     96  30  10 NE8       30.21F HX  90
BRYCE CANYON   MOSUNNY   90  23   9 W10G20    30.32F
CEDAR CITY     SUNNY     99  21   6 NE7       30.12F HX  92
DELTA          SUNNY     99  21   6 NW6       30.07F HX  92
MILFORD        SUNNY    100  21   6 CALM      30.07F HX  93
MOAB/CYNLANDS  SUNNY    103  27   7 MISG      30.00F HX  96
PRICE          SUNNY     97  20   6 NW20G28   30.16S HX  90
ST GEORGE      CLEAR    109  43  10 SW13      29.86F HX 104

$$

REGIONAL REPORTS     COLORADO/ARIZONA

CITY           SKY/WX    TMP DP  RH WIND       PRES   REMARKS
CRAIG, CO      SUNNY     93  12   5 W10       30.18F
GRAND JUNCTION SUNNY     99  33  10 W9        30.04F HX  93
RIFLE          SUNNY     96  25   8 N8        30.11S HX  90
MONTROSE       SUNNY     93  32  11 W8        30.16F
CORTEZ         SUNNY     96  32  10 N10       30.13F HX  90
PAGE, AZ       SUNNY    105  26   6 E9        29.98F HX  97
GRAND CANYON   MOSUNNY   94  30  10 N8        30.23F
KINGMAN        CLOUDY    88  55  32 NW12G25   29.98F
FLAGSTAFF      SUNNY     89  28  11 N5        30.25F

$$

REGIONAL REPORTS    NEVADA/IDAHO/WYOMING

CITY           SKY/WX    TMP DP  RH WIND       PRES   REMARKS
LAS VEGAS, NV  MOSUNNY  113  39   8 VRB5      29.76F HX 106
ELY            SUNNY     96  19   6 SW7       30.18F
ELKO           SUNNY     99  13   4 W13       30.09F HX  91
POCATELLO, ID  SUNNY     96  32  10 W12       30.07F HX  90
BURLEY         SUNNY     94  40  15 NE5       30.01F HX  90
EVANSTON, WY   SUNNY     87  18   8 W9G21     30.31S
ROCK SPRINGS   SUNNY     90  11   5 W16G25    30.23S
KEMMERER         N/A    N/A N/A N/A W12G20    30.32S

$$




USA.gov is the U.S. government's official web portal to all federal, state and local government web resources and services.